TimeCDT,TemperatureF,Dew PointF,Humidity,Sea Level PressureIn,VisibilityMPH,Wind Direction,Wind SpeedMPH,Gust SpeedMPH,PrecipitationIn,Events,Conditions,WindDirDegrees,DateUTC
12:15 AM,80.2,64.4,58,29.91,10.0,WSW,12.7,20.7,N/A,,Clear,240,2013-08-28 05:15:00
12:35 AM,80.2,64.8,59,29.91,10.0,WSW,11.5,18.4,N/A,,Clear,250,2013-08-28 05:35:00
12:55 AM,80.2,64.8,59,29.91,10.0,WSW,12.7,-,N/A,,Clear,250,2013-08-28 05:55:00
1:15 AM,80.2,64.8,59,29.90,10.0,WSW,13.8,-,N/A,,Clear,250,2013-08-28 06:15:00
1:35 AM,79.2,64.2,60,29.90,10.0,WSW,10.4,-,N/A,,Clear,250,2013-08-28 06:35:00
1:55 AM,78.6,64.0,61,29.89,10.0,WSW,13.8,-,N/A,,Clear,250,2013-08-28 06:55:00
2:15 AM,78.3,64.4,62,29.89,10.0,WSW,11.5,-,N/A,,Clear,250,2013-08-28 07:15:00
2:35 AM,78.3,64.4,62,29.89,10.0,WSW,10.4,16.1,N/A,,Clear,250,2013-08-28 07:35:00
2:55 AM,78.1,64.8,63,29.88,10.0,WSW,9.2,-,N/A,,Clear,250,2013-08-28 07:55:00
3:15 AM,77.9,64.9,64,29.89,10.0,WSW,9.2,-,N/A,,Clear,250,2013-08-28 08:15:00
3:35 AM,77.4,65.1,66,29.89,10.0,WSW,9.2,-,N/A,,Clear,250,2013-08-28 08:35:00
3:55 AM,76.6,65.3,68,29.90,10.0,WSW,9.2,-,N/A,,Clear,250,2013-08-28 08:55:00
4:15 AM,75.9,65.3,70,29.90,10.0,WSW,9.2,-,N/A,,Clear,240,2013-08-28 09:15:00
4:35 AM,75.2,65.8,73,29.91,10.0,SW,6.9,-,N/A,,Clear,230,2013-08-28 09:35:00
4:55 AM,73.2,65.5,77,29.91,10.0,SW,10.4,-,N/A,,Clear,230,2013-08-28 09:55:00
5:15 AM,73.4,65.7,77,29.91,10.0,WSW,8.1,-,N/A,,Clear,250,2013-08-28 10:15:00
5:35 AM,74.3,65.8,75,29.91,10.0,WSW,6.9,-,N/A,,Clear,250,2013-08-28 10:35:00
5:55 AM,73.9,65.8,76,29.92,10.0,WSW,6.9,-,N/A,,Clear,250,2013-08-28 10:55:00
6:15 AM,73.8,65.8,76,29.93,10.0,WSW,6.9,-,N/A,,Clear,250,2013-08-28 11:15:00
6:35 AM,73.4,65.8,77,29.93,10.0,WSW,6.9,-,N/A,,Clear,250,2013-08-28 11:35:00
6:55 AM,73.9,66.2,77,29.94,10.0,West,6.9,-,N/A,,Clear,260,2013-08-28 11:55:00
7:15 AM,75.2,66.4,74,29.94,10.0,West,9.2,-,N/A,,Clear,260,2013-08-28 12:15:00
7:35 AM,75.6,66.6,74,29.94,10.0,West,6.9,-,N/A,,Clear,270,2013-08-28 12:35:00
7:55 AM,76.5,66.7,72,29.94,10.0,West,9.2,-,N/A,,Clear,270,2013-08-28 12:55:00
8:15 AM,77.9,67.3,70,29.94,10.0,West,10.4,-,N/A,,Clear,280,2013-08-28 13:15:00
8:35 AM,79.0,67.8,69,29.95,10.0,WNW,9.2,-,N/A,,Clear,290,2013-08-28 13:35:00
8:55 AM,80.2,68.7,68,29.94,10.0,West,9.2,-,N/A,,Scattered Clouds,280,2013-08-28 13:55:00
9:15 AM,80.4,68.7,67,29.95,10.0,WNW,8.1,-,N/A,,Clear,290,2013-08-28 14:15:00
9:35 AM,80.8,69.3,68,29.95,10.0,WNW,9.2,-,N/A,,Clear,290,2013-08-28 14:35:00
9:55 AM,81.5,70.0,68,29.95,10.0,NW,9.2,-,N/A,,Clear,310,2013-08-28 14:55:00
10:15 AM,82.4,70.9,68,29.95,10.0,NW,8.1,-,N/A,,Clear,320,2013-08-28 15:15:00
10:35 AM,83.3,72.1,69,29.96,10.0,West,5.8,-,N/A,,Clear,280,2013-08-28 15:35:00
10:55 AM,84.0,72.3,68,29.96,10.0,WNW,4.6,-,N/A,,Clear,300,2013-08-28 15:55:00
11:15 AM,84.6,72.9,68,29.97,10.0,North,5.8,-,N/A,,Clear,350,2013-08-28 16:15:00
11:35 AM,84.7,73.2,68,29.97,10.0,NNW,6.9,-,N/A,,Clear,340,2013-08-28 16:35:00
11:55 AM,85.6,73.9,68,29.97,10.0,North,3.5,-,N/A,,Scattered Clouds,350,2013-08-28 16:55:00
12:15 PM,86.2,74.3,68,29.97,10.0,North,5.8,-,N/A,,Scattered Clouds,10,2013-08-28 17:15:00
12:35 PM,86.2,74.5,68,29.97,10.0,North,5.8,-,N/A,,Scattered Clouds,10,2013-08-28 17:35:00
12:55 PM,86.5,75.0,68,29.97,10.0,NNE,5.8,-,N/A,,Scattered Clouds,30,2013-08-28 17:55:00
1:15 PM,86.5,75.0,68,29.97,10.0,Calm,Calm,-,N/A,,Scattered Clouds,0,2013-08-28 18:15:00
1:35 PM,87.6,75.7,68,29.96,10.0,Calm,Calm,-,N/A,,Scattered Clouds,0,2013-08-28 18:35:00
1:55 PM,87.8,75.6,67,29.96,10.0,North,3.5,-,N/A,,Overcast,360,2013-08-28 18:55:00
2:15 PM,86.5,75.2,69,29.97,10.0,NNE,3.5,-,N/A,,Overcast,20,2013-08-28 19:15:00
2:35 PM,86.2,75.9,71,29.97,10.0,ENE,4.6,-,N/A,,Mostly Cloudy,70,2013-08-28 19:35:00
2:55 PM,87.8,76.3,69,29.96,10.0,NE,8.1,-,N/A,,Scattered Clouds,50,2013-08-28 19:55:00
3:15 PM,87.1,76.6,71,29.96,10.0,ENE,4.6,-,N/A,,Scattered Clouds,60,2013-08-28 20:15:00
3:35 PM,86.4,76.3,72,29.96,10.0,NE,6.9,-,N/A,,Mostly Cloudy,40,2013-08-28 20:35:00
3:55 PM,86.4,76.1,71,29.97,10.0,NE,10.4,-,N/A,,Scattered Clouds,50,2013-08-28 20:55:00
4:15 PM,86.0,76.5,73,29.98,10.0,NE,10.4,-,N/A,,Scattered Clouds,40,2013-08-28 21:15:00
4:35 PM,85.3,75.7,73,29.97,10.0,NE,12.7,-,N/A,,Scattered Clouds,50,2013-08-28 21:35:00
4:55 PM,85.3,75.6,73,29.98,10.0,NNE,10.4,-,N/A,,Clear,30,2013-08-28 21:55:00
5:15 PM,84.2,75.0,74,29.98,10.0,NE,9.2,-,N/A,,Scattered Clouds,50,2013-08-28 22:15:00
5:35 PM,83.7,74.7,74,29.98,10.0,ENE,10.4,-,N/A,,Clear,60,2013-08-28 22:35:00
5:55 PM,83.7,74.8,75,29.98,10.0,ENE,9.2,-,N/A,,Mostly Cloudy,60,2013-08-28 22:55:00
6:15 PM,82.8,73.8,74,29.98,10.0,NE,8.1,-,N/A,,Mostly Cloudy,50,2013-08-28 23:15:00
6:35 PM,82.4,73.8,75,29.98,10.0,NE,5.8,-,N/A,,Scattered Clouds,50,2013-08-28 23:35:00
6:55 PM,81.5,74.3,79,29.99,10.0,NE,6.9,-,N/A,,Scattered Clouds,50,2013-08-28 23:55:00
7:15 PM,81.0,74.3,80,29.99,10.0,NE,4.6,-,N/A,,Scattered Clouds,40,2013-08-29 00:15:00
7:35 PM,80.2,74.3,82,29.99,10.0,NE,5.8,-,N/A,,Mostly Cloudy,40,2013-08-29 00:35:00
7:55 PM,80.6,73.8,80,30.00,10.0,NE,4.6,-,N/A,,Scattered Clouds,40,2013-08-29 00:55:00
8:15 PM,79.3,73.9,83,30.00,10.0,ENE,5.8,-,N/A,,Scattered Clouds,60,2013-08-29 01:15:00
8:35 PM,80.2,73.6,80,30.01,10.0,East,8.1,-,N/A,,Scattered Clouds,80,2013-08-29 01:35:00
8:55 PM,79.0,71.6,78,30.01,10.0,East,8.1,-,N/A,,Scattered Clouds,90,2013-08-29 01:55:00
9:15 PM,77.9,71.1,79,30.02,10.0,East,9.2,-,N/A,,Clear,80,2013-08-29 02:15:00
9:35 PM,76.8,70.2,80,30.02,10.0,East,10.4,-,N/A,,Clear,80,2013-08-29 02:35:00
9:55 PM,75.6,69.8,82,30.03,10.0,East,8.1,-,N/A,,Clear,80,2013-08-29 02:55:00
10:15 PM,75.2,69.4,82,30.03,10.0,East,6.9,-,N/A,,Clear,80,2013-08-29 03:15:00
10:35 PM,75.2,69.6,83,30.04,10.0,East,5.8,-,N/A,,Scattered Clouds,80,2013-08-29 03:35:00
10:55 PM,74.7,69.4,84,30.04,10.0,East,5.8,-,N/A,,Mostly Cloudy,80,2013-08-29 03:55:00
11:15 PM,73.9,68.4,83,30.03,10.0,East,5.8,-,N/A,,Scattered Clouds,100,2013-08-29 04:15:00
11:35 PM,73.4,67.5,82,30.04,10.0,East,6.9,-,N/A,,Clear,80,2013-08-29 04:35:00
11:55 PM,72.9,67.1,82,30.03,10.0,East,5.8,-,N/A,,Clear,90,2013-08-29 04:55:00